Location: Arcueil
(48.7999°N, 2.3326°E)
Time: 17:03:48
(UTC+00:00)

JY1SAT - Pass Details

Date: 20 June 2024
Orbit: 535 x 549 km, 97.5° (Epoch: 18 July)

Event Time Altitude Azimuth Distance (km) Brightness Sun altitude
Exits shadow 21:18:20 - 191° (SSW) 2,302 ? -10.0°
Reaches altitude 10° 21:19:35 10° 198° (SSW) 1,819 ? -10.1°
Maximum altitude 21:23:11 33° 264° (W) 932 ? -10.4°
Drops below altitude 10° 21:26:49 10° 330° (NNW) 1,842 ? -10.8°
Sets 21:29:07 0° 339° (NNW) 2,743 ? -11.0°
